Lid_Strength_Index
17 19 21 20 16 16 16 18 19 18 15 18 20 20 20 18 17 18 19 19 18 18 17 16 15 15 16 16 16 16 16 15 15 16 16 16 17 16 15 15 14 14 14 14
19 21 19 16 15 16 17 18 19 16 16 17 19 19 17 17 17 17 17 17 17 16 16 16 16 16 15 15 15 14 14 14 14 14 14 14 15 15 14 12 12 12 12 12
21 20 17 17 18 17 18 18 19 18 17 18 19 20 20 17 16 16 16 15 15 16 16 15 14 14 14 13 13 13 13 13 13 12 12 12 12 13 13 13 12 11 11 11
21 18 18 19 18 18 19 16 17 17 19 24 17 24 20 19 18 17 16 17 16 15 15 15 15 15 14 13 13 12 12 12 12 12 12 13 13 14 13 12 12 12 11 11
22 21 20 19 19 17 17 16 16 16 19 21 20 25 20 19 19 18 17 16 16 16 15 15 15 14 14 13 13 13 13 12 12 12 12 13 14 13 13 13 13 13 12 12
21 20 20 20 18 17 16 17 17 18 20 28 23 24 23 21 19 18 16 16 16 16 15 15 15 14 14 14 13 13 13 12 12 12 12 13 13 13 14 13 13 13 13 12
22 22 20 19 20 18 18 19 28 27 28 26 22 25 22 18 17 16 16 16 15 15 15 15 16 16 15 15 14 13 13 13 13 13 13 13 13 14 14 14 14 14 14 14
23 23 21 20 21 21 21 21 26 31 27 25 22 26 20 18 15 15 15 15 15 15 15 15 15 15 15 15 15 14 13 13 13 13 13 13 13 13 13 13 14 14 14 14
24 23 21 20 20 20 21 22 21 31 38 30 24 20 18 17 16 16 15 16 16 15 15 15 15 15 15 15 15 15 14 14 14 13 13 14 14 14 14 14 14 14 14 13
21 24 22 21 21 21 21 20 25 28 31 32 26 24 22 20 18 17 16 16 16 15 15 15 15 15 15 15 15 15 14 14 14 14 14 13 14 14 14 14 14 14 13 13
20 22 23 22 23 23 24 24 24 25 26 30 31 24 20 18 18 17 16 15 15 15 15 15 14 14 15 15 15 15 15 15 14 14 14 14 14 13 13 13 13 13 13 13
20 23 28 24 24 23 23 23 22 27 28 27 27 25 17 17 18 18 17 15 15 15 14 15 14 15 16 15 16 15 15 15 14 14 14 14 13 13 13 13 13 13 13 13
20 24 29 25 23 23 25 23 22 27 28 30 29 24 19 19 18 18 18 17 15 15 16 15 16 16 15 15 16 16 15 15 14 14 14 14 14 14 14 13 13 13 14 14
18 24 23 22 22 24 26 25 24 26 30 26 25 22 20 19 20 19 18 18 17 16 15 15 16 16 15 15 15 15 15 15 14 14 14 14 14 14 13 13 13 13 13 13
21 25 25 26 24 25 24 23 24 24 22 24 21 22 18 18 18 18 17 17 17 17 17 16 16 16 16 16 16 15 15 15 14 14 14 14 13 13 13 13 13 13 13 13
22 27 27 27 27 25 24 22 23 22 22 23 23 23 18 19 19 19 18 19 17 17 16 16 15 15 15 15 16 15 15 15 14 14 14 14 13 13 13 13 13 13 13 14
24 26 27 27 29 30 27 25 22 22 23 21 23 19 18 20 18 17 18 18 17 17 16 16 15 15 15 16 15 15 15 14 15 15 14 14 14 14 13 13 13 13 15 14
26 25 27 30 31 29 21 23 20 20 19 19 20 20 20 18 18 17 17 18 17 16 16 16 16 16 16 15 15 15 15 15 14 14 14 14 14 14 13 13 14 14 15 16
22 24 29 27 30 23 20 23 23 23 21 19 20 18 17 20 20 19 17 17 16 18 16 16 15 15 16 15 15 15 15 14 15 15 15 14 14 14 14 15 16 16 17 17
23 25 23 33 31 27 18 19 21 20 22 17 18 18 18 19 22 18 16 16 16 17 18 16 16 16 16 17 16 15 15 16 17 16 15 16 17 16 16 17 18 18 17 17
27 27 25 27 25 25 21 21 19 23 19 17 18 18 20 19 17 17 17 17 16 17 18 17 17 16 16 17 16 16 18 17 16 17 18 19 18 19 18 19 18 19 19 19
26 27 27 29 28 27 21 21 19 16 18 18 19 18 19 17 18 18 18 17 17 18 19 17 18 17 18 17 16 17 19 17 18 19 20 21 21 19 19 20 21 21 21 22
22 21 24 22 22 20 19 17 18 18 18 18 19 19 17 18 19 18 18 18 17 17 18 18 18 18 20 18 17 17 17 19 20 21 22 22 20 20 19 21 22 23 22 22
23 20 21 22 18 20 20 18 19 18 18 17 18 18 18 19 18 18 18 18 17 17 17 19 19 19 19 20 18 17 20 19 19 21 22 21 21 22 22 19 19 21 22 21
16 20 20 21 18 19 18 19 17 17 18 18 18 18 18 18 18 17 18 18 17 17 17 17 17 17 17 18 20 22 20 19 20 21 21 21 20 21 22 21 21 19 18 16
17 18 20 20 16 17 15 17 17 18 18 17 18 18 18 17 17 17 17 17 17 18 18 18 18 18 20 20 21 23 21 20 20 20 20 21 21 23 23 22 23 17 15 13